Showing default

TECHSAT 1B, 25397

Orbit data source: Space-Track

TECHSAT 1B, 25397 is a payload satellite owned by Technion (IL) in SSO that was launched on Fri, 10 Jul 1998 UTC via a ZENIT-2 launch vehicle from the Tyuratam Missile And Space Complex (TTMTR). Payload-class satellites include a variety of spacecraft equipped with specific instruments for various scientific and technological missions. These include communications satellites like Starlink; space stations such as the ISS; scientific satellites like the Hubble; Earth observation satellites from companies like Planet Labs, Umbra, and HawkEye 360; GPS; miniature CubeSats for education and research; and military/defense satellites.

Loading next visibility...
Identifier
25397, 1998-043D
Orbit
SSO
Country
Flag of ILIL / ISRA
Related business
Manufacturer
Technion
Mission
Partially operational Amateur Communications
Bus & Motor
TECHSAT 1, Unknown motor
Mass
50 kg wet, 50 kg dry
Launch date (UTC)
1998-07-10 (28 years ago)
Launch vehicle
ZENIT-2
Launch site
Tyuratam Missile And Space Complex (TTMTR)
Object type
Payload
Rocket body
Debris
Shape & HBR
Box, 0.3 m
Radar Cross Section
0.375 m², Medium (>0.1 m² and < 1m²)

Expand to show TLE details & history
Last TLE update: 8 hours ago

TLE from 8 hours ago
0 TECHSAT 1B
1 25397U 98043D   26093.95764767  .00000139  00000-0  80434-4 0  9997
2 25397  99.0052  84.8541 0002319  78.8036 281.3402 14.24413417440762
Epoch: 2026-04-03T22:59Z
TLE epoch observation values (Epoch: 2026-04-03T22:59:00.758Z)
Latitude
-0.00009°
Longitude
-92.18336°
Altitude
813.049 km
Speed
7.447 km/s
True Right ascension
05h 39m 24s
True Declination
0° 00' 00"
Sunlit
Object was in daylight at epoch
Visualization orbit readout
Latitude
Unknown
Longitude
Unknown
Altitude
Unknown
Speed
Unknown
Apparent Right ascension
Unknown
Apparent Declination
Unknown
Sunlit
N/A
Visualization observer readout
Local Sidereal Time
13:00:56
Azimuth
Unknown
Elevation
Unknown
Doppler factor
Unknown
Orbital elements
Apogee altitude
809.299 km
Perigee altitude
805.966 km
Semi-major axis
7,185.77 km
Eccentricity
0.00023
Inclination
99.0052°
RAAN
84.8541°
Arg. of periapsis
78.8036°
True anomaly
281.31414°
Mean anomaly
281.3402°
Eccentric anomaly
281.32717°
Mean motion
3.56314 °/min
Orbital period
101.03 mins
BSTAR
0.000080434
Loading maneuver chart data...
Computing Atmospheric mass density...
Loading historical data...
Loading historical data...
Loading historical data...
Loading historical data...
Loading historical data...
Loading historical data...
Loading historical data...

Documentation

Showing up to 5 results
|